Location: Alafon
(8.4500°N, 4.2333°E)
Time: 17:40:06
(UTC+00:00)

Transit 2A - Pass Details

Date: 05 August 2021
Orbit: 595 x 964 km, 66.7° (Epoch: 18 September)

Event Time Altitude Azimuth Distance (km) Brightness Sun altitude
Rises 02:46:49 0° 171° (S) 2,880 - -39.3°
Reaches altitude 10° 02:49:46 10° 150° (SSE) 1,942 - -38.6°
Maximum altitude 02:52:36 17° 109° (ESE) 1,515 - -38.0°
Exits shadow 02:54:41 13° 76° (ENE) 1,749 8.5 -37.6°
Drops below altitude 10° 02:55:24 10° 67° (ENE) 1,920 8.8 -37.4°
Sets 02:58:17 0° 47° (NE) 2,832 9.9 -36.8°
